TimeSAST,TemperatureF,Dew PointF,Humidity,Sea Level PressureIn,VisibilityMPH,Wind Direction,Wind SpeedMPH,Gust SpeedMPH,PrecipitationIn,Events,Conditions,WindDirDegrees,DateUTC
1:00 AM,66.2,64.4,94,29.68,-9999.0,ENE,6.9,-,N/A,,Clear,60,2014-01-05 23:00:00
2:00 AM,67,63,83,29.69,12,South,3.5,,,,,190,2014-01-06 00:00:00
2:00 AM,66.2,62.6,88,29.68,-9999.0,SW,5.8,-,N/A,,Clear,220,2014-01-06 00:00:00
3:00 AM,66.2,64.4,94,29.68,6.2,WNW,8.1,-,N/A,,Mostly Cloudy,290,2014-01-06 01:00:00
4:00 AM,68.0,64.4,88,29.71,5.6,WNW,5.8,-,N/A,,Overcast,290,2014-01-06 02:00:00
5:00 AM,67,64,87,29.72,12,WNW,5.8,,,,Mostly Cloudy,290,2014-01-06 03:00:00
5:00 AM,66.2,64.4,94,29.71,6.2,WNW,5.8,-,N/A,,Mostly Cloudy,290,2014-01-06 03:00:00
6:00 AM,68.0,64.4,88,29.74,6.2,WNW,5.8,-,N/A,,Mostly Cloudy,290,2014-01-06 04:00:00
7:00 AM,68.0,64.4,88,29.74,6.2,WNW,5.8,-,N/A,,Mostly Cloudy,290,2014-01-06 05:00:00
8:00 AM,69,65,83,29.76,12,WNW,9.2,,,,Mostly Cloudy,290,2014-01-06 06:00:00
8:00 AM,68.0,64.4,88,29.74,6.2,WNW,9.2,-,N/A,,Scattered Clouds,290,2014-01-06 06:00:00
9:00 AM,69.8,64.4,83,29.77,6.2,WNW,8.1,-,N/A,,Scattered Clouds,300,2014-01-06 07:00:00
10:00 AM,69.8,62.6,78,29.77,6.2,West,5.8,-,N/A,,Mostly Cloudy,270,2014-01-06 08:00:00
11:00 AM,71,62,67,29.78,12,NW,8.1,,,Rain,Light Rain,310,2014-01-06 09:00:00
11:00 AM,71.6,62.6,73,29.77,6.2,NW,8.1,-,N/A,Rain,Light Rain,310,2014-01-06 09:00:00
12:00 PM,69.8,62.6,78,29.77,6.2,WNW,3.5,-,N/A,Rain,Light Rain,290,2014-01-06 10:00:00
1:00 PM,69.8,64.4,83,29.77,6.2,NW,4.6,-,N/A,Rain,Light Rain,310,2014-01-06 11:00:00
2:00 PM,68,65,87,29.77,1,,3.5,,,Rain,Rain,,2014-01-06 12:00:00
2:00 PM,68.0,66.2,94,29.77,1.4,Variable,1.2,-,N/A,Rain,Rain,0,2014-01-06 12:00:00
3:00 PM,68.0,66.2,94,29.77,1.4,ESE,12.7,-,N/A,Rain,Rain,110,2014-01-06 13:00:00
4:00 PM,68.0,66.2,94,29.74,1.6,ESE,12.7,-,N/A,Rain,Light Rain,120,2014-01-06 14:00:00
5:00 PM,69,66,88,29.75,2,ESE,12.7,,,Rain,Light Rain,110,2014-01-06 15:00:00
5:00 PM,68.0,66.2,94,29.74,1.6,ESE,11.5,-,N/A,Rain,Light Rain,120,2014-01-06 15:00:00
6:00 PM,68.0,66.2,94,29.74,1.6,SE,10.4,-,N/A,Rain,Light Rain,130,2014-01-06 16:00:00
7:00 PM,68.0,66.2,94,29.77,1.6,SE,5.8,-,N/A,Rain,Light Rain,140,2014-01-06 17:00:00
8:00 PM,68,65,89,29.78,2,SSE,9.2,,,Rain,Light Rain,150,2014-01-06 18:00:00
8:00 PM,68.0,66.2,94,29.77,1.6,SSE,9.2,-,N/A,Rain,Light Rain,150,2014-01-06 18:00:00
9:00 PM,68.0,66.2,94,29.80,3.7,SSE,8.1,-,N/A,Rain,Heavy Rain,160,2014-01-06 19:00:00
10:00 PM,68.0,66.2,94,29.80,2.2,SSE,8.1,-,N/A,,Drizzle,160,2014-01-06 20:00:00
11:00 PM,68.0,66.2,94,29.83,1.5,SSE,9.2,-,N/A,Rain,Light Rain,160,2014-01-06 21:00:00